sat.trackr.live / text

‹ back to catalog

OOV-CUBE (TUBSAT-30)

NORAD 60240 · 2024-128F

PAYLOAD ACTIVE UNKNOWN

§ Identity

Operator
Country
GER
Launch date
2024-07-09
Launch site
FRGUI
Launch vehicle
Mass (kg)
RCS (m²)

Purposes: comms, tech_demo

External: N2YO · Heavens-Above · Gunter

§ Orbital elements

Epoch: 2026-09-19T12:43:15.468096Z

Period
95.80 min
Inclination
61.9927°
Eccentricity
0.0031252
Mean motion
15.03107778 rev/d
Perigee alt
535.6 km
Apogee alt
579.0 km
Semi-major
6,935.5 km
B*
9.8208e-5
RAAN
256.5162°
Arg perigee
155.7400°
Mean anomaly
204.5171°
Rev number
12,029

§ Raw data

OOV-CUBE (TUBSAT-30)1 60240U 24128F   26262.53004014  .00001131  00000+0  98208-4 0  99902 60240  61.9927 256.5162 0031252 155.7400 204.5171 15.03107778120293

JSON: /api/v1/satellites/60240 · /tle

For live sub-satellite position, see the globe view (requires WebGL).

§ Visibility from observer

Set your observer location to see the next 7 days of passes ≥ 10°. The values pass through the URL so the page stays shareable.

No JS? Fill the form by hand. The geolocation button needs JavaScript.

§ Radio — SatNOGS DB

ModeDescriptionDownlinkUplink
FM Mode S - Transmitter 2.263 GHz
AFSK Mode U - AFSK1k2 435.950 MHz

2 transmitters · refreshed weekly from db.satnogs.org